RUK198P EGCC-GMTT

Flight info

Callsign RUK198P
Flight time 2h 57m
Altitude 23000
Route ASMIM P16 NOKIN P17 BEPHE/N0440F360 DCT OSSEP DCT ELNIF DCT ZESPE DCT KLAKI DCT SALCO/N0438F350 DCT GOPIN/N0446F370 DCT DELOG N864 RATAS DCT NEA DCT NONTU DCT ORBIS DCT DISKO DCT TLD DCT DOPEN DCT MONTO DCT MOLIN DCT HIJ N10 LINTO DCT NOLRO
Aircraft B738/M-SDE1E2E3FGIJ1LRWY/SB1

Departure

Time 2026-05-05 15:04
Airport Manchester Airport (EGCC)

Arrival

Time 2026-05-05 18:01
Airport Tangier Ibn Battuta Airport (GMTT)
Time Latitude Longitude Altitude Speed Heading
2026-05-05 14:32 53.35927 -2.26988 232 ft 0 kts 277°
2026-05-05 14:55 53.35926 -2.26977 232 ft 4 kts 277°
2026-05-05 14:55 53.35923 -2.26937 232 ft 2 kts 277°
2026-05-05 14:55 53.35923 -2.26896 232 ft 4 kts 254°
2026-05-05 14:56 53.35936 -2.26860 235 ft 4 kts 212°
2026-05-05 14:56 53.35960 -2.26845 237 ft 4 kts 191°
2026-05-05 14:56 53.35985 -2.26833 236 ft 4 kts 221°
2026-05-05 14:56 53.35999 -2.26805 235 ft 3 kts 231°
2026-05-05 14:57 53.36002 -2.26799 237 ft 1 kts 231°
2026-05-05 14:59 53.36001 -2.26802 235 ft 1 kts 231°
2026-05-05 14:59 53.35982 -2.26832 236 ft 6 kts 213°
2026-05-05 14:59 53.35924 -2.26829 234 ft 11 kts 186°
2026-05-05 14:59 53.35860 -2.26928 232 ft 15 kts 233°
2026-05-05 15:00 53.35803 -2.27096 232 ft 16 kts 254°
2026-05-05 15:00 53.35823 -2.27215 232 ft 17 kts 273°
2026-05-05 15:00 53.35721 -2.27461 232 ft 22 kts 231°
2026-05-05 15:00 53.35636 -2.27632 232 ft 17 kts 223°
2026-05-05 15:01 53.35539 -2.27786 232 ft 21 kts 224°
2026-05-05 15:01 53.35439 -2.27952 232 ft 18 kts 224°
2026-05-05 15:01 53.35357 -2.28084 232 ft 16 kts 224°
2026-05-05 15:01 53.35269 -2.28228 232 ft 20 kts 224°
2026-05-05 15:02 53.35176 -2.28417 232 ft 23 kts 231°
2026-05-05 15:02 53.35076 -2.28625 232 ft 23 kts 231°
2026-05-05 15:02 53.34985 -2.28746 232 ft 13 kts 176°
2026-05-05 15:02 53.34911 -2.28673 232 ft 12 kts 142°
2026-05-05 15:03 53.34863 -2.28565 234 ft 12 kts 80°
2026-05-05 15:03 53.34912 -2.28451 234 ft 13 kts 51°
2026-05-05 15:03 53.35092 -2.28081 231 ft 79 kts 51°
2026-05-05 15:03 53.35591 -2.27049 240 ft 146 kts 51°
2026-05-05 15:04 53.36341 -2.25573 579 ft 175 kts 48°
2026-05-05 15:04 53.37098 -2.24011 1612 ft 168 kts 49°
2026-05-05 15:04 53.37865 -2.22389 2220 ft 192 kts 50°
2026-05-05 15:04 53.38949 -2.20872 2482 ft 218 kts 18°
2026-05-05 15:05 53.41610 -2.22832 3634 ft 238 kts 300°
2026-05-05 15:05 53.42307 -2.25485 4066 ft 257 kts 295°
2026-05-05 15:05 53.43036 -2.28264 4738 ft 261 kts 296°
2026-05-05 15:06 53.43811 -2.31041 5482 ft 265 kts 297°
2026-05-05 15:06 53.44618 -2.33843 6392 ft 268 kts 297°
2026-05-05 15:06 53.45455 -2.36652 7246 ft 270 kts 298°
2026-05-05 15:06 53.46299 -2.39427 8130 ft 271 kts 298°
2026-05-05 15:07 53.46933 -2.42455 8994 ft 275 kts 277°
2026-05-05 15:07 53.46830 -2.45617 9884 ft 278 kts 261°
2026-05-05 15:07 53.46458 -2.48884 10500 ft 289 kts 260°
2026-05-05 15:07 53.46057 -2.52301 10684 ft 314 kts 260°
2026-05-05 15:08 53.45634 -2.56004 11087 ft 329 kts 260°
2026-05-05 15:08 53.45202 -2.59811 11810 ft 335 kts 258°
2026-05-05 15:08 53.44291 -2.63418 12581 ft 341 kts 236°
2026-05-05 15:08 53.42633 -2.66266 13395 ft 346 kts 217°
2026-05-05 15:09 53.40458 -2.68080 14151 ft 352 kts 203°
2026-05-05 15:09 53.38156 -2.69535 14835 ft 356 kts 202°
2026-05-05 15:09 53.35815 -2.70945 15527 ft 359 kts 201°
2026-05-05 15:09 53.33461 -2.72360 16230 ft 361 kts 202°
2026-05-05 15:10 53.31087 -2.73803 16930 ft 364 kts 202°
2026-05-05 15:10 53.28695 -2.75273 17616 ft 367 kts 202°
2026-05-05 15:10 53.26290 -2.76762 18296 ft 371 kts 202°
2026-05-05 15:10 53.23862 -2.78272 18882 ft 374 kts 202°
2026-05-05 15:11 53.21422 -2.79790 19483 ft 376 kts 202°
2026-05-05 15:11 53.18967 -2.81317 20088 ft 378 kts 202°
2026-05-05 15:11 53.16494 -2.82854 20674 ft 380 kts 202°
2026-05-05 15:11 53.14009 -2.84396 21252 ft 383 kts 202°
2026-05-05 15:12 53.11504 -2.85947 21808 ft 386 kts 202°
2026-05-05 15:12 53.08907 -2.87174 22338 ft 391 kts 192°
2026-05-05 15:12 53.06184 -2.87620 22904 ft 396 kts 183°
2026-05-05 15:12 53.03424 -2.87311 23442 ft 401 kts 174°
2026-05-05 15:13 53.00662 -2.86568 23915 ft 404 kts 173°
2026-05-05 15:13 52.97887 -2.85760 24335 ft 406 kts 172°
2026-05-05 15:13 52.95091 -2.84950 24734 ft 409 kts 172°
2026-05-05 15:13 52.92274 -2.84157 25155 ft 412 kts 172°
2026-05-05 15:14 52.89442 -2.83381 25574 ft 414 kts 173°
2026-05-05 15:14 52.86594 -2.82615 25977 ft 416 kts 173°
2026-05-05 15:14 52.83721 -2.81847 26376 ft 419 kts 172°
2026-05-05 15:14 52.80835 -2.81077 26752 ft 422 kts 172°
2026-05-05 15:15 52.77970 -2.80306 27124 ft 424 kts 172°
2026-05-05 15:15 52.75053 -2.79503 27498 ft 426 kts 172°
2026-05-05 15:15 52.72118 -2.78693 27858 ft 429 kts 172°
2026-05-05 15:15 52.69164 -2.77886 28193 ft 432 kts 172°
2026-05-05 15:16 52.66190 -2.77101 28529 ft 435 kts 172°
2026-05-05 15:16 52.63188 -2.76318 28854 ft 437 kts 172°
2026-05-05 15:16 52.60155 -2.75796 29166 ft 439 kts 180°
2026-05-05 15:16 52.57057 -2.76018 29502 ft 441 kts 185°
2026-05-05 15:17 52.54034 -2.76378 29900 ft 441 kts 184°
2026-05-05 15:17 52.50978 -2.76697 30351 ft 439 kts 184°
2026-05-05 15:17 52.47939 -2.76974 30787 ft 436 kts 184°
2026-05-05 15:17 52.44911 -2.77233 31154 ft 436 kts 183°
2026-05-05 15:18 52.41882 -2.77489 31473 ft 436 kts 183°
2026-05-05 15:18 52.38849 -2.77746 31828 ft 435 kts 184°
2026-05-05 15:18 52.35830 -2.78003 32204 ft 434 kts 184°
2026-05-05 15:18 52.32813 -2.78262 32524 ft 434 kts 184°
2026-05-05 15:19 52.29797 -2.78521 32834 ft 435 kts 184°
2026-05-05 15:19 52.26778 -2.78781 33176 ft 434 kts 184°
2026-05-05 15:19 52.23763 -2.79039 33524 ft 433 kts 184°
2026-05-05 15:19 52.20752 -2.79298 33812 ft 433 kts 184°
2026-05-05 15:20 52.17742 -2.79555 34088 ft 434 kts 184°
2026-05-05 15:20 52.14730 -2.79813 34362 ft 433 kts 184°
2026-05-05 15:20 52.11727 -2.80069 34635 ft 432 kts 184°
2026-05-05 15:20 52.08725 -2.80325 34876 ft 432 kts 184°
2026-05-05 15:21 52.05719 -2.80581 34998 ft 435 kts 184°
2026-05-05 15:21 51.99642 -2.81099 35003 ft 437 kts 184°
2026-05-05 15:22 51.93608 -2.81612 34996 ft 430 kts 184°
2026-05-05 15:22 51.87641 -2.82118 35015 ft 429 kts 184°
2026-05-05 15:23 51.81707 -2.82965 35021 ft 428 kts 188°
2026-05-05 15:23 51.75806 -2.84293 35023 ft 428 kts 189°
2026-05-05 15:24 51.69911 -2.85607 35020 ft 428 kts 188°
2026-05-05 15:24 51.64008 -2.86865 35021 ft 428 kts 188°
2026-05-05 15:25 51.58103 -2.88109 35012 ft 428 kts 188°
2026-05-05 15:25 51.52200 -2.89354 34990 ft 428 kts 188°
2026-05-05 15:26 51.46305 -2.90605 34991 ft 427 kts 188°
2026-05-05 15:26 51.40411 -2.91853 34996 ft 427 kts 188°
2026-05-05 15:27 51.34528 -2.93094 34996 ft 426 kts 188°
2026-05-05 15:27 51.28686 -2.94325 34994 ft 426 kts 188°
2026-05-05 15:28 51.22808 -2.95558 34990 ft 426 kts 188°
2026-05-05 15:28 51.16937 -2.96787 34976 ft 425 kts 188°
2026-05-05 15:29 51.11070 -2.98013 34972 ft 425 kts 188°
2026-05-05 15:29 51.06163 -2.99036 34976 ft 424 kts 187°
2026-05-05 15:30 50.99364 -3.00449 34974 ft 424 kts 187°
2026-05-05 15:30 50.94463 -3.01465 34970 ft 423 kts 187°
2026-05-05 15:31 50.88667 -3.02663 34970 ft 423 kts 187°
2026-05-05 15:31 50.82839 -3.03866 34971 ft 422 kts 187°
2026-05-05 15:32 50.77012 -3.05065 34966 ft 422 kts 187°
2026-05-05 15:32 50.71189 -3.06260 34965 ft 422 kts 187°
2026-05-05 15:33 50.65359 -3.07454 34969 ft 422 kts 187°
2026-05-05 15:33 50.59522 -3.08646 34964 ft 423 kts 187°
2026-05-05 15:34 50.53679 -3.09837 34972 ft 424 kts 187°
2026-05-05 15:34 50.47817 -3.11028 34965 ft 425 kts 187°
2026-05-05 15:35 50.41933 -3.12222 34968 ft 427 kts 187°
2026-05-05 15:35 50.36070 -3.13794 34956 ft 429 kts 198°
2026-05-05 15:36 50.30522 -3.17224 34965 ft 430 kts 202°
2026-05-05 15:36 50.24988 -3.20833 34968 ft 431 kts 202°
2026-05-05 15:37 50.19425 -3.24399 34965 ft 433 kts 202°
2026-05-05 15:37 50.13838 -3.27932 34968 ft 434 kts 202°
2026-05-05 15:38 50.08239 -3.31454 34967 ft 434 kts 202°
2026-05-05 15:38 50.02631 -3.34973 34974 ft 434 kts 202°
2026-05-05 15:39 49.97022 -3.38485 34973 ft 434 kts 202°
2026-05-05 15:39 49.91417 -3.41987 34971 ft 434 kts 202°
2026-05-05 15:40 49.85810 -3.45481 34968 ft 434 kts 202°
2026-05-05 15:40 49.80209 -3.48964 34978 ft 434 kts 202°
2026-05-05 15:41 49.74576 -3.52289 34970 ft 434 kts 195°
2026-05-05 15:41 49.68616 -3.53484 34987 ft 433 kts 182°
2026-05-05 15:42 49.62592 -3.53760 34967 ft 433 kts 181°
2026-05-05 15:42 49.56568 -3.54037 34973 ft 433 kts 182°
2026-05-05 15:43 49.50540 -3.54361 34977 ft 433 kts 182°
2026-05-05 15:43 49.44549 -3.54706 34975 ft 434 kts 182°
2026-05-05 15:44 49.38513 -3.55060 34977 ft 435 kts 182°
2026-05-05 15:44 49.32462 -3.55414 34976 ft 435 kts 182°
2026-05-05 15:45 49.26403 -3.55766 34974 ft 436 kts 182°
2026-05-05 15:45 49.20330 -3.56118 34972 ft 437 kts 182°
2026-05-05 15:46 49.14247 -3.56469 34974 ft 438 kts 182°
2026-05-05 15:46 49.08152 -3.56820 34971 ft 438 kts 182°
2026-05-05 15:47 49.02056 -3.57171 34968 ft 438 kts 182°
2026-05-05 15:47 48.95961 -3.57520 34969 ft 438 kts 182°
2026-05-05 15:48 48.89871 -3.57868 34968 ft 438 kts 182°
2026-05-05 15:48 48.83791 -3.58215 34965 ft 437 kts 181°
2026-05-05 15:49 48.77730 -3.58561 34968 ft 435 kts 181°
2026-05-05 15:49 48.71693 -3.58903 34965 ft 433 kts 181°
2026-05-05 15:50 48.65679 -3.59245 34967 ft 432 kts 181°
2026-05-05 15:50 48.59685 -3.59583 34966 ft 430 kts 181°
2026-05-05 15:51 48.53714 -3.59920 34966 ft 429 kts 181°
2026-05-05 15:51 48.47753 -3.60255 34960 ft 428 kts 181°
2026-05-05 15:52 48.41802 -3.60589 34966 ft 429 kts 181°
2026-05-05 15:52 48.35825 -3.60924 34947 ft 430 kts 181°
2026-05-05 15:53 48.29850 -3.61257 34958 ft 429 kts 181°
2026-05-05 15:53 48.23891 -3.61590 34946 ft 428 kts 181°
2026-05-05 15:54 48.17988 -3.61918 34950 ft 427 kts 181°
2026-05-05 15:54 48.12048 -3.62246 34971 ft 427 kts 181°
2026-05-05 15:55 48.06062 -3.62575 34951 ft 433 kts 181°
2026-05-05 15:55 48.00030 -3.62909 34943 ft 433 kts 181°
2026-05-05 15:56 47.94027 -3.63241 34953 ft 431 kts 181°
2026-05-05 15:56 47.88049 -3.63571 34958 ft 429 kts 181°
2026-05-05 15:57 47.82094 -3.63898 34964 ft 428 kts 181°
2026-05-05 15:57 47.76143 -3.64223 34961 ft 427 kts 181°
2026-05-05 15:58 47.70212 -3.64546 34965 ft 426 kts 181°
2026-05-05 15:58 47.64286 -3.64869 34954 ft 426 kts 181°
2026-05-05 15:59 47.58364 -3.65191 34954 ft 426 kts 181°
2026-05-05 15:59 47.52448 -3.65511 34948 ft 426 kts 181°
2026-05-05 16:00 47.46524 -3.65832 34941 ft 426 kts 181°
2026-05-05 16:00 47.40586 -3.66152 34938 ft 427 kts 180°
2026-05-05 16:01 47.34642 -3.66472 34942 ft 429 kts 180°
2026-05-05 16:01 47.28672 -3.66792 34940 ft 430 kts 180°
2026-05-05 16:02 47.22685 -3.67113 34939 ft 431 kts 180°
2026-05-05 16:02 47.16677 -3.67434 34936 ft 432 kts 180°
2026-05-05 16:03 47.10665 -3.67756 34935 ft 433 kts 180°
2026-05-05 16:03 47.04628 -3.68077 34941 ft 434 kts 180°
2026-05-05 16:04 46.98588 -3.68629 34934 ft 435 kts 183°
2026-05-05 16:04 46.92589 -3.69400 34931 ft 436 kts 183°
2026-05-05 16:05 46.86545 -3.70169 34935 ft 436 kts 183°
2026-05-05 16:05 46.80488 -3.70903 34939 ft 437 kts 183°
2026-05-05 16:06 46.74429 -3.71619 34935 ft 437 kts 183°
2026-05-05 16:06 46.68356 -3.72331 34940 ft 438 kts 183°
2026-05-05 16:07 46.62278 -3.73042 34938 ft 438 kts 183°
2026-05-05 16:07 46.56194 -3.73753 34938 ft 439 kts 183°
2026-05-05 16:08 46.50104 -3.74463 34940 ft 439 kts 184°
2026-05-05 16:08 46.44007 -3.75172 34942 ft 440 kts 184°
2026-05-05 16:09 46.37913 -3.75880 34937 ft 440 kts 184°
2026-05-05 16:09 46.31808 -3.76587 34940 ft 440 kts 184°
2026-05-05 16:10 46.25704 -3.77293 34938 ft 440 kts 184°
2026-05-05 16:10 46.19609 -3.77996 34942 ft 439 kts 184°
2026-05-05 16:11 46.13517 -3.78697 34945 ft 439 kts 184°
2026-05-05 16:12 46.01361 -3.80091 34947 ft 438 kts 184°
2026-05-05 16:13 45.86256 -3.81814 34948 ft 436 kts 184°
2026-05-05 16:13 45.80204 -3.82502 34951 ft 436 kts 184°
2026-05-05 16:14 45.68127 -3.83870 34955 ft 435 kts 184°
2026-05-05 16:15 45.56063 -3.85231 34956 ft 435 kts 185°
2026-05-05 16:16 45.45027 -3.86471 34958 ft 434 kts 185°
2026-05-05 16:17 45.35982 -3.87483 34958 ft 435 kts 185°
2026-05-05 16:18 45.26936 -3.88493 34955 ft 435 kts 185°
2026-05-05 16:19 45.17883 -3.89500 34967 ft 435 kts 185°
2026-05-05 16:19 45.08825 -3.90504 34969 ft 436 kts 185°
2026-05-05 16:20 44.96737 -3.91839 34964 ft 436 kts 185°
2026-05-05 16:22 44.81619 -3.93501 34967 ft 435 kts 186°
2026-05-05 16:23 44.69553 -3.94822 34972 ft 434 kts 186°
2026-05-05 16:23 44.60570 -3.95801 34968 ft 433 kts 186°
2026-05-05 16:24 44.54568 -3.96454 34971 ft 433 kts 186°
2026-05-05 16:25 44.45571 -3.97430 34974 ft 432 kts 186°
2026-05-05 16:25 44.36585 -3.98402 34981 ft 432 kts 186°
2026-05-05 16:26 44.24576 -3.98068 34977 ft 433 kts 177°
2026-05-05 16:27 44.18572 -3.97411 34982 ft 433 kts 177°
2026-05-05 16:27 44.12558 -3.96797 34986 ft 433 kts 178°
2026-05-05 16:28 44.06543 -3.96206 34983 ft 433 kts 178°
2026-05-05 16:28 44.00526 -3.95619 34988 ft 433 kts 178°
2026-05-05 16:29 43.94518 -3.95033 34991 ft 433 kts 178°
2026-05-05 16:29 43.88506 -3.94447 34996 ft 433 kts 178°
2026-05-05 16:30 43.82489 -3.93862 34991 ft 433 kts 178°
2026-05-05 16:30 43.76480 -3.93279 34997 ft 433 kts 178°
2026-05-05 16:31 43.70471 -3.92691 35003 ft 433 kts 178°
2026-05-05 16:31 43.64463 -3.92101 35012 ft 432 kts 178°
2026-05-05 16:32 43.58465 -3.91513 35015 ft 432 kts 179°
2026-05-05 16:32 43.52468 -3.90928 35019 ft 432 kts 179°
2026-05-05 16:33 43.46475 -3.90345 35017 ft 431 kts 179°
2026-05-05 16:33 43.40570 -3.90719 35028 ft 427 kts 189°
2026-05-05 16:34 43.34667 -3.91675 35017 ft 427 kts 189°
2026-05-05 16:34 43.28762 -3.92611 35022 ft 427 kts 189°
2026-05-05 16:35 43.22846 -3.93504 35019 ft 428 kts 189°
2026-05-05 16:35 43.16916 -3.94382 35014 ft 429 kts 189°
2026-05-05 16:36 43.10985 -3.95258 35020 ft 428 kts 189°
2026-05-05 16:36 43.05055 -3.96135 35020 ft 428 kts 189°
2026-05-05 16:37 42.99127 -3.97009 35010 ft 428 kts 189°
2026-05-05 16:37 42.93204 -3.97881 35013 ft 428 kts 189°
2026-05-05 16:38 42.87288 -3.98746 35014 ft 428 kts 189°
2026-05-05 16:38 42.81370 -3.99611 35003 ft 428 kts 189°
2026-05-05 16:39 42.75459 -4.00473 35003 ft 427 kts 190°
2026-05-05 16:39 42.69321 -4.01368 35006 ft 426 kts 190°
2026-05-05 16:40 42.63435 -4.02224 35006 ft 425 kts 190°
2026-05-05 16:40 42.57555 -4.03077 35009 ft 425 kts 190°
2026-05-05 16:41 42.51685 -4.03923 35009 ft 424 kts 190°
2026-05-05 16:41 42.45823 -4.04764 35008 ft 423 kts 191°
2026-05-05 16:42 42.39969 -4.05603 35008 ft 423 kts 191°
2026-05-05 16:42 42.34124 -4.06440 35004 ft 422 kts 191°
2026-05-05 16:43 42.28281 -4.07275 35006 ft 422 kts 191°
2026-05-05 16:43 42.22442 -4.08108 34999 ft 422 kts 191°
2026-05-05 16:44 42.16609 -4.08939 35002 ft 421 kts 191°
2026-05-05 16:44 42.10780 -4.09767 35014 ft 421 kts 191°
2026-05-05 16:45 42.04948 -4.10595 34991 ft 421 kts 191°
2026-05-05 16:45 41.99107 -4.11366 35000 ft 422 kts 190°
2026-05-05 16:46 41.93255 -4.12018 34993 ft 422 kts 190°
2026-05-05 16:46 41.87395 -4.12666 34999 ft 422 kts 190°
2026-05-05 16:47 41.81541 -4.13326 34990 ft 422 kts 190°
2026-05-05 16:47 41.75693 -4.13990 34984 ft 422 kts 190°
2026-05-05 16:48 41.69844 -4.14655 34985 ft 421 kts 191°
2026-05-05 16:48 41.64006 -4.15317 34984 ft 421 kts 191°
2026-05-05 16:49 41.59155 -4.15866 34980 ft 421 kts 191°
2026-05-05 16:49 41.53327 -4.16524 34977 ft 420 kts 191°
2026-05-05 16:50 41.47506 -4.17178 34977 ft 419 kts 191°
2026-05-05 16:50 41.41692 -4.17825 34978 ft 419 kts 191°
2026-05-05 16:51 41.35885 -4.18470 34983 ft 418 kts 191°
2026-05-05 16:51 41.30085 -4.19113 34982 ft 418 kts 191°
2026-05-05 16:52 41.24294 -4.19756 34980 ft 418 kts 191°
2026-05-05 16:52 41.18498 -4.20404 34982 ft 418 kts 191°
2026-05-05 16:53 41.12706 -4.21051 34981 ft 417 kts 191°
2026-05-05 16:53 41.06921 -4.21696 34978 ft 417 kts 191°
2026-05-05 16:54 41.01137 -4.22340 34980 ft 417 kts 191°
2026-05-05 16:54 40.95351 -4.22980 34972 ft 417 kts 191°
2026-05-05 16:55 40.89568 -4.23617 34977 ft 417 kts 191°
2026-05-05 16:55 40.83783 -4.24255 34973 ft 417 kts 191°
2026-05-05 16:56 40.78038 -4.24887 34975 ft 417 kts 191°
2026-05-05 16:56 40.72245 -4.25524 34963 ft 418 kts 191°
2026-05-05 16:57 40.66451 -4.26158 34966 ft 418 kts 191°
2026-05-05 16:57 40.60657 -4.26793 34961 ft 418 kts 191°
2026-05-05 16:58 40.54851 -4.27427 34941 ft 419 kts 191°
2026-05-05 16:58 40.49054 -4.28059 34949 ft 417 kts 192°
2026-05-05 16:59 40.43268 -4.28688 34944 ft 417 kts 192°
2026-05-05 16:59 40.37489 -4.29316 34939 ft 416 kts 192°
2026-05-05 17:00 40.31723 -4.29942 34936 ft 415 kts 192°
2026-05-05 17:00 40.25964 -4.30567 34929 ft 415 kts 192°
2026-05-05 17:01 40.20208 -4.31189 34937 ft 415 kts 192°
2026-05-05 17:01 40.14453 -4.31811 34931 ft 415 kts 192°
2026-05-05 17:02 40.08696 -4.32431 34935 ft 415 kts 192°
2026-05-05 17:02 40.02936 -4.33051 34940 ft 415 kts 192°
2026-05-05 17:03 39.97224 -4.33668 34935 ft 414 kts 193°
2026-05-05 17:03 39.91572 -4.34781 34940 ft 409 kts 197°
2026-05-05 17:04 39.85962 -4.36085 34934 ft 410 kts 197°
2026-05-05 17:04 39.80343 -4.37341 34934 ft 410 kts 197°
2026-05-05 17:05 39.74719 -4.38570 34938 ft 409 kts 197°
2026-05-05 17:05 39.69099 -4.39771 34946 ft 410 kts 197°
2026-05-05 17:06 39.63476 -4.40965 34932 ft 410 kts 197°
2026-05-05 17:06 39.57850 -4.42159 34941 ft 409 kts 197°
2026-05-05 17:07 39.52233 -4.43352 34936 ft 409 kts 197°
2026-05-05 17:07 39.46613 -4.44544 34936 ft 410 kts 197°
2026-05-05 17:08 39.40990 -4.45735 34938 ft 409 kts 197°
2026-05-05 17:08 39.35372 -4.46922 34945 ft 409 kts 197°
2026-05-05 17:09 39.29745 -4.48111 34943 ft 410 kts 197°
2026-05-05 17:09 39.24147 -4.49414 34933 ft 404 kts 203°
2026-05-05 17:10 39.19098 -4.52243 34939 ft 390 kts 219°
2026-05-05 17:10 39.14592 -4.56125 34949 ft 390 kts 219°
2026-05-05 17:11 39.10086 -4.60017 34954 ft 391 kts 219°
2026-05-05 17:11 39.05550 -4.63886 34949 ft 391 kts 219°
2026-05-05 17:12 39.01008 -4.67742 34946 ft 391 kts 219°
2026-05-05 17:12 38.96465 -4.71592 34940 ft 391 kts 219°
2026-05-05 17:13 38.91927 -4.75433 34949 ft 391 kts 219°
2026-05-05 17:13 38.87383 -4.79276 34958 ft 391 kts 219°
2026-05-05 17:14 38.82836 -4.83115 34951 ft 391 kts 219°
2026-05-05 17:14 38.78285 -4.86950 34954 ft 391 kts 219°
2026-05-05 17:15 38.73735 -4.90781 34947 ft 392 kts 219°
2026-05-05 17:15 38.69181 -4.94607 34954 ft 391 kts 219°
2026-05-05 17:16 38.64632 -4.98425 34958 ft 391 kts 219°
2026-05-05 17:16 38.60082 -5.02237 34960 ft 391 kts 219°
2026-05-05 17:17 38.55533 -5.06045 34956 ft 390 kts 219°
2026-05-05 17:17 38.50981 -5.09830 34951 ft 391 kts 217°
2026-05-05 17:18 38.46098 -5.13006 34950 ft 395 kts 212°
2026-05-05 17:18 38.41146 -5.16039 34959 ft 395 kts 212°
2026-05-05 17:19 38.36201 -5.19080 34957 ft 394 kts 212°
2026-05-05 17:19 38.31263 -5.22131 34960 ft 394 kts 212°
2026-05-05 17:20 38.26326 -5.25186 34959 ft 394 kts 212°
2026-05-05 17:20 38.21426 -5.28214 34964 ft 395 kts 212°
2026-05-05 17:21 38.16451 -5.31284 34958 ft 395 kts 212°
2026-05-05 17:22 38.09073 -5.35829 34960 ft 395 kts 212°
2026-05-05 17:22 38.04127 -5.38869 34958 ft 395 kts 212°
2026-05-05 17:23 37.99145 -5.41927 34962 ft 395 kts 212°
2026-05-05 17:23 37.94231 -5.44939 34959 ft 395 kts 212°
2026-05-05 17:24 37.89321 -5.47938 34943 ft 384 kts 213°
2026-05-05 17:24 37.84538 -5.50861 34963 ft 381 kts 213°
2026-05-05 17:25 37.79800 -5.53755 34936 ft 376 kts 213°
2026-05-05 17:25 37.75254 -5.56511 34931 ft 349 kts 213°
2026-05-05 17:25 37.73107 -5.57813 34939 ft 336 kts 213°
2026-05-05 17:26 37.71039 -5.59068 34933 ft 326 kts 214°
2026-05-05 17:26 37.66910 -5.61596 34969 ft 337 kts 213°
2026-05-05 17:27 37.62593 -5.64234 34973 ft 352 kts 213°
2026-05-05 17:27 37.58082 -5.66973 34972 ft 367 kts 213°
2026-05-05 17:28 37.53382 -5.69816 34970 ft 382 kts 212°
2026-05-05 17:28 37.48511 -5.72757 34972 ft 395 kts 212°
2026-05-05 17:29 37.43452 -5.75679 34957 ft 407 kts 206°
2026-05-05 17:29 37.37846 -5.77224 34968 ft 415 kts 195°
2026-05-05 17:30 37.32185 -5.78196 34955 ft 408 kts 195°
2026-05-05 17:30 37.26555 -5.79177 34966 ft 409 kts 195°
2026-05-05 17:31 37.20911 -5.80189 34963 ft 409 kts 196°
2026-05-05 17:31 37.15364 -5.81187 34953 ft 398 kts 196°
2026-05-05 17:32 37.09893 -5.82181 34953 ft 397 kts 196°
2026-05-05 17:32 37.07155 -5.82680 34686 ft 401 kts 196°
2026-05-05 17:32 37.04388 -5.83185 34303 ft 399 kts 195°
2026-05-05 17:32 37.01649 -5.83680 33901 ft 397 kts 195°
2026-05-05 17:33 36.98927 -5.84170 33467 ft 394 kts 195°
2026-05-05 17:33 36.96224 -5.84656 33059 ft 390 kts 195°
2026-05-05 17:33 36.93549 -5.85137 32680 ft 387 kts 195°
2026-05-05 17:33 36.90931 -5.85608 32316 ft 383 kts 195°
2026-05-05 17:34 36.88267 -5.86088 31941 ft 380 kts 195°
2026-05-05 17:34 36.85693 -5.86552 31578 ft 377 kts 195°
2026-05-05 17:34 36.83945 -5.86867 31331 ft 375 kts 195°
2026-05-05 17:34 36.81372 -5.87330 30980 ft 372 kts 195°
2026-05-05 17:35 36.77993 -5.87938 30508 ft 369 kts 195°
2026-05-05 17:35 36.76277 -5.88247 30264 ft 367 kts 196°
2026-05-05 17:35 36.73754 -5.88700 29891 ft 365 kts 196°
2026-05-05 17:35 36.71245 -5.89151 29486 ft 363 kts 195°
2026-05-05 17:36 36.68751 -5.89599 29101 ft 361 kts 195°
2026-05-05 17:36 36.66280 -5.90042 28726 ft 358 kts 195°
2026-05-05 17:36 36.63823 -5.90482 28364 ft 355 kts 195°
2026-05-05 17:36 36.61380 -5.90920 27985 ft 354 kts 195°
2026-05-05 17:37 36.58951 -5.91355 27616 ft 352 kts 195°
2026-05-05 17:37 36.56533 -5.91788 27250 ft 350 kts 195°
2026-05-05 17:37 36.54126 -5.92218 26892 ft 349 kts 195°
2026-05-05 17:37 36.51731 -5.92646 26536 ft 347 kts 195°
2026-05-05 17:38 36.49342 -5.93073 26173 ft 346 kts 195°
2026-05-05 17:38 36.46966 -5.93497 25830 ft 345 kts 195°
2026-05-05 17:38 36.44592 -5.93921 25478 ft 344 kts 194°
2026-05-05 17:38 36.42219 -5.94344 25121 ft 344 kts 194°
2026-05-05 17:39 36.39854 -5.94766 24769 ft 344 kts 194°
2026-05-05 17:39 36.37482 -5.95188 24419 ft 344 kts 194°
2026-05-05 17:39 36.35117 -5.95609 24058 ft 344 kts 194°
2026-05-05 17:39 36.32746 -5.96030 23686 ft 344 kts 194°
2026-05-05 17:40 36.30372 -5.96452 23279 ft 344 kts 194°
2026-05-05 17:40 36.28003 -5.96872 22875 ft 344 kts 193°
2026-05-05 17:40 36.25642 -5.97290 22518 ft 342 kts 193°
2026-05-05 17:40 36.23289 -5.97702 22149 ft 342 kts 193°
2026-05-05 17:41 36.20919 -5.98045 21733 ft 343 kts 191°
2026-05-05 17:41 36.18545 -5.98344 21363 ft 343 kts 191°
2026-05-05 17:41 36.16172 -5.98635 21001 ft 342 kts 191°
2026-05-05 17:41 36.13812 -5.98925 20646 ft 340 kts 191°
2026-05-05 17:42 36.11540 -5.99209 20308 ft 339 kts 191°
2026-05-05 17:42 36.09197 -5.99507 19981 ft 338 kts 190°
2026-05-05 17:42 36.06857 -5.99806 19622 ft 338 kts 190°
2026-05-05 17:42 36.04525 -6.00106 19277 ft 337 kts 190°
2026-05-05 17:43 36.02193 -6.00406 18929 ft 337 kts 189°
2026-05-05 17:43 35.99865 -6.00706 18585 ft 336 kts 189°
2026-05-05 17:43 35.97539 -6.01006 18204 ft 337 kts 189°
2026-05-05 17:43 35.95541 -6.01264 17870 ft 336 kts 189°
2026-05-05 17:44 35.93219 -6.01562 17496 ft 335 kts 189°
2026-05-05 17:44 35.90904 -6.01860 17139 ft 334 kts 189°
2026-05-05 17:44 35.88601 -6.02156 16791 ft 332 kts 189°
2026-05-05 17:44 35.86305 -6.02451 16444 ft 331 kts 189°
2026-05-05 17:45 35.84021 -6.02744 16101 ft 329 kts 189°
2026-05-05 17:45 35.81748 -6.03055 15761 ft 328 kts 190°
2026-05-05 17:45 35.79491 -6.03394 15431 ft 326 kts 190°
2026-05-05 17:45 35.77242 -6.03741 15091 ft 325 kts 191°
2026-05-05 17:46 35.75004 -6.04100 14767 ft 324 kts 191°
2026-05-05 17:46 35.72778 -6.04456 14441 ft 322 kts 190°
2026-05-05 17:46 35.70558 -6.04809 14106 ft 321 kts 190°
2026-05-05 17:46 35.68427 -6.05520 13715 ft 316 kts 211°
2026-05-05 17:47 35.66768 -6.07167 13365 ft 310 kts 231°
2026-05-05 17:47 35.65666 -6.09400 12990 ft 302 kts 250°
2026-05-05 17:47 35.65038 -6.11820 12655 ft 293 kts 254°
2026-05-05 17:47 35.64487 -6.14192 12327 ft 285 kts 257°
2026-05-05 17:48 35.64529 -6.16565 12007 ft 279 kts 289°
2026-05-05 17:48 35.65652 -6.18444 11742 ft 276 kts 323°
2026-05-05 17:48 35.67366 -6.19489 11425 ft 274 kts 333°
2026-05-05 17:48 35.69070 -6.20428 11303 ft 263 kts 333°
2026-05-05 17:49 35.70716 -6.21308 11221 ft 257 kts 339°
2026-05-05 17:49 35.72548 -6.21384 10963 ft 285 kts 14°
2026-05-05 17:49 35.72796 -6.21290 10940 ft 288 kts 18°
2026-05-05 17:49 35.74223 -6.20244 10786 ft 300 kts 41°
2026-05-05 17:50 35.75337 -6.18063 10537 ft 307 kts 75°
2026-05-05 17:50 35.75352 -6.15483 10303 ft 303 kts 107°
2026-05-05 17:50 35.74617 -6.13077 10127 ft 298 kts 110°
2026-05-05 17:50 35.74119 -6.10648 10041 ft 287 kts 100°
2026-05-05 17:51 35.73893 -6.08240 9766 ft 280 kts 95°
2026-05-05 17:51 35.73767 -6.05884 9478 ft 273 kts 93°
2026-05-05 17:51 35.73683 -6.03566 9208 ft 271 kts 92°
2026-05-05 17:51 35.73620 -6.01252 8948 ft 272 kts 92°
2026-05-05 17:52 35.73566 -5.98886 8696 ft 282 kts 91°
2026-05-05 17:52 35.73513 -5.96449 8404 ft 286 kts 91°
2026-05-05 17:52 35.73461 -5.93996 8111 ft 286 kts 91°
2026-05-05 17:52 35.73289 -5.91565 7776 ft 286 kts 106°
2026-05-05 17:53 35.72550 -5.89309 7529 ft 283 kts 115°
2026-05-05 17:53 35.71716 -5.87110 7240 ft 285 kts 115°
2026-05-05 17:53 35.70872 -5.84894 6930 ft 286 kts 115°
2026-05-05 17:53 35.70035 -5.82680 6636 ft 285 kts 115°
2026-05-05 17:54 35.69205 -5.80465 6353 ft 283 kts 114°
2026-05-05 17:54 35.68393 -5.78282 6080 ft 279 kts 113°
2026-05-05 17:54 35.67598 -5.76133 5939 ft 273 kts 113°
2026-05-05 17:54 35.66821 -5.74028 5801 ft 268 kts 114°
2026-05-05 17:55 35.66052 -5.71954 5708 ft 266 kts 114°
2026-05-05 17:55 35.65295 -5.69909 5565 ft 257 kts 115°
2026-05-05 17:55 35.64612 -5.67954 5348 ft 244 kts 105°
2026-05-05 17:55 35.64623 -5.65943 5121 ft 234 kts 71°
2026-05-05 17:56 35.65486 -5.64284 4879 ft 232 kts 39°
2026-05-05 17:56 35.66888 -5.63361 4638 ft 229 kts 10°
2026-05-05 17:56 35.68453 -5.63401 4375 ft 226 kts 340°
2026-05-05 17:56 35.69665 -5.64490 4198 ft 214 kts 300°
2026-05-05 17:57 35.70242 -5.66156 3969 ft 213 kts 289°
2026-05-05 17:57 35.70672 -5.67885 3714 ft 210 kts 284°
2026-05-05 17:57 35.71012 -5.69612 3442 ft 206 kts 282°
2026-05-05 17:57 35.71248 -5.71354 3155 ft 206 kts 277°
2026-05-05 17:58 35.71418 -5.73089 2913 ft 203 kts 277°
2026-05-05 17:58 35.71574 -5.74822 2619 ft 202 kts 276°
2026-05-05 17:58 35.71729 -5.76527 2379 ft 200 kts 276°
2026-05-05 17:58 35.71885 -5.78240 2099 ft 204 kts 276°
2026-05-05 17:59 35.72040 -5.79933 1820 ft 192 kts 277°
2026-05-05 17:59 35.72186 -5.81518 1547 ft 181 kts 277°
2026-05-05 17:59 35.72324 -5.83012 1312 ft 172 kts 276°
2026-05-05 17:59 35.72455 -5.84438 1130 ft 162 kts 277°
2026-05-05 18:00 35.72579 -5.85805 865 ft 156 kts 278°
2026-05-05 18:00 35.72697 -5.87085 650 ft 149 kts 278°
2026-05-05 18:00 35.72931 -5.89610 284 ft 138 kts 278°
2026-05-05 18:01 35.73040 -5.90806 93 ft 139 kts 278°
2026-05-05 18:01 35.73146 -5.91893 56 ft 107 kts 277°
2026-05-05 18:01 35.73204 -5.92545 53 ft 47 kts 276°
2026-05-05 18:01 35.73241 -5.92922 59 ft 41 kts 276°
2026-05-05 18:02 35.73265 -5.93221 53 ft 25 kts 265°
2026-05-05 18:02 35.73202 -5.93325 57 ft 14 kts 204°
2026-05-05 18:02 35.73112 -5.93298 59 ft 14 kts 136°
2026-05-05 18:02 35.73087 -5.93231 52 ft 13 kts 97°
2026-05-05 18:03 35.73076 -5.93120 59 ft 13 kts 97°
2026-05-05 18:03 35.73065 -5.93007 59 ft 15 kts 96°
2026-05-05 18:03 35.73052 -5.92864 59 ft 19 kts 96°
2026-05-05 18:03 35.73035 -5.92686 59 ft 22 kts 96°
2026-05-05 18:04 35.73019 -5.92501 59 ft 21 kts 97°
2026-05-05 18:04 35.73002 -5.92322 52 ft 21 kts 96°
2026-05-05 18:04 35.72985 -5.92136 53 ft 23 kts 96°
2026-05-05 18:04 35.72966 -5.91923 59 ft 26 kts 96°
2026-05-05 18:05 35.72915 -5.91730 57 ft 24 kts 156°
2026-05-05 18:05 35.72755 -5.91707 59 ft 23 kts 176°
2026-05-05 18:05 35.72622 -5.91696 59 ft 13 kts 176°
2026-05-05 18:05 35.72530 -5.91688 59 ft 13 kts 176°
2026-05-05 18:06 35.72447 -5.91627 59 ft 16 kts 127°
2026-05-05 18:06 35.72427 -5.91538 56 ft 18 kts 87°
2026-05-05 18:06 35.72440 -5.91316 53 ft 20 kts 86°
2026-05-05 18:06 35.72449 -5.91150 59 ft 19 kts 86°
2026-05-05 18:07 35.72476 -5.91079 56 ft 8 kts 17°
2026-05-05 18:07 35.72528 -5.91080 59 ft 4 kts 356°
2026-05-05 18:07 35.72532 -5.91080 59 ft 1 kts 356°
2026-05-05 18:07 35.72533 -5.91080 59 ft 0 kts 356°